Location: Marcé
(47.5801°N, 0.3280°W)
Time: 07:21:16
(UTC+01:00)

deb AGENA D - Visible Passes

Search period start: 30 November 2022 00:00
Search period end: 10 December 2022 00:00
Orbit: 665 x 751 km, 99.9° (Epoch: 29 November)

Date Brightness Start Highest point End Pass type
(mag) Time Alt. Az. Time Alt. Az. Time Alt. Az.
30 Nov ? 07:20:26 10° E 07:22:50 14° NE 07:25:15 10° NNE visible
02 Dec ? 07:12:20 10° ENE 07:13:59 12° NE 07:15:39 10° NNE visible
03 Dec ? 07:54:02 10° ESE 07:57:48 26° ENE 08:01:35 10° N visible
05 Dec ? 07:45:23 10° ESE 07:48:49 21° ENE 07:52:18 10° N visible
07 Dec ? 07:36:45 10° E 07:39:48 18° ENE 07:42:54 10° NNE visible
09 Dec ? 07:28:13 10° E 07:30:46 15° NE 07:33:21 10° NNE visible
